"read_dt","SO2 (ppb)","flags","PMT voltage (V)","lamp voltage (V)","lamp intensity (Hz)","internal temp (C)","react chamber temp (C)","sample flow (l/min)","pres (mmHg)","SO2 bkg (ppb)","SO2 coefficient"
2016-08-17 00:00:00,2021E-3,5C000400,-0723,0826,12272,032.9,045.6,0.246,755.1,01.16,0.508
2016-08-17 00:01:00,2109E-3,5C000400,-0723,0825,12219,032.9,045.6,0.245,755.1,01.16,0.508
2016-08-17 00:02:00,2149E-3,5C000400,-0723,0825,12207,032.9,045.6,0.245,755.1,01.16,0.508
2016-08-17 00:03:00,2125E-3,5C000400,-0723,0825,12158,032.9,045.6,0.246,755.1,01.16,0.508
2016-08-17 00:04:00,2162E-3,5C000400,-0723,0825,12250,032.9,045.6,0.246,755.2,01.16,0.508
2016-08-17 00:05:00,1990E-3,5C000400,-0723,0824,12260,032.9,045.6,0.245,755.1,01.16,0.508
2016-08-17 00:06:00,1958E-3,5C000400,-0723,0825,12193,032.9,045.6,0.245,755.2,01.16,0.508
2016-08-17 00:07:00,2198E-3,5C000400,-0723,0824,12357,032.9,045.6,0.246,755.1,01.16,0.508
2016-08-17 00:08:00,2123E-3,5C000400,-0723,0824,11971,033.0,045.6,0.245,755.2,01.16,0.508
2016-08-17 00:09:00,2165E-3,5C000400,-0723,0824,12323,032.9,045.6,0.245,755.1,01.16,0.508
2016-08-17 00:10:00,2192E-3,5C000400,-0723,0825,12229,032.9,045.6,0.245,755.1,01.16,0.508
2016-08-17 00:11:00,2105E-3,5C000400,-0723,0825,12258,032.9,045.6,0.246,755.2,01.16,0.508
2016-08-17 00:12:00,2080E-3,5C000400,-0723,0825,12311,032.9,045.6,0.245,755.2,01.16,0.508
2016-08-17 00:13:00,2318E-3,5C000400,-0723,0825,12177,032.9,045.6,0.245,755.1,01.16,0.508
2016-08-17 00:14:00,2116E-3,5C000400,-0723,0826,12429,033.0,045.6,0.246,755.1,01.16,0.508
2016-08-17 00:15:00,2094E-3,5C000400,-0723,0825,12128,032.9,045.6,0.245,755.1,01.16,0.508
2016-08-17 00:16:00,2077E-3,5C000400,-0723,0824,12196,032.9,045.6,0.245,755.1,01.16,0.508
2016-08-17 00:17:00,1926E-3,5C000400,-0723,0825,12376,032.9,045.6,0.245,755.1,01.16,0.508
2016-08-17 00:18:00,2142E-3,5C000400,-0723,0824,12288,032.9,045.6,0.246,755.1,01.16,0.508
2016-08-17 00:19:00,2182E-3,5C000400,-0723,0826,12205,033.0,045.6,0.245,755.1,01.16,0.508
2016-08-17 00:20:00,2082E-3,5C000400,-0723,0825,12310,032.9,045.6,0.245,755.1,01.16,0.508
2016-08-17 00:21:00,2143E-3,5C000400,-0723,0825,12184,032.9,045.6,0.246,755.1,01.16,0.508
2016-08-17 00:22:00,2066E-3,5C000400,-0723,0826,12379,032.6,045.6,0.246,755.1,01.16,0.508
2016-08-17 00:23:00,2045E-3,5C000400,-0723,0825,12275,032.4,045.6,0.246,755.1,01.16,0.508
2016-08-17 00:24:00,2275E-3,5C000400,-0723,0824,12340,032.5,045.6,0.246,755.1,01.16,0.508
2016-08-17 00:25:00,1983E-3,5C000400,-0723,0824,12269,032.5,045.6,0.246,755.1,01.16,0.508
2016-08-17 00:26:00,2091E-3,5C000400,-0723,0824,12286,032.5,045.6,0.245,755.1,01.16,0.508
2016-08-17 00:27:00,2028E-3,5C000400,-0723,0825,12219,032.4,045.6,0.246,755.1,01.16,0.508
2016-08-17 00:28:00,2029E-3,5C000400,-0723,0825,12218,032.5,045.6,0.246,755.1,01.16,0.508
2016-08-17 00:29:00,2073E-3,5C000400,-0723,0825,12207,032.4,045.6,0.246,755.1,01.16,0.508
2016-08-17 00:30:00,2003E-3,5C000400,-0723,0824,12226,032.4,045.6,0.246,755.1,01.16,0.508
2016-08-17 00:31:00,2126E-3,5C000400,-0723,0825,12291,032.4,045.6,0.246,755.1,01.16,0.508
2016-08-17 00:32:00,2094E-3,5C000400,-0723,0824,12203,032.4,045.6,0.246,755.0,01.17,0.508
2016-08-17 00:33:00,2216E-3,5C000400,-0723,0825,12347,032.4,045.6,0.247,755.0,01.17,0.508
2016-08-17 00:34:00,2174E-3,5C000400,-0723,0825,12175,032.3,045.6,0.246,755.0,01.17,0.508
2016-08-17 00:35:00,2071E-3,5C000400,-0723,0825,12174,032.3,045.6,0.246,755.0,01.17,0.508
2016-08-17 00:36:00,2057E-3,5C000400,-0723,0825,12300,032.3,045.6,0.246,755.0,01.17,0.508
2016-08-17 00:37:00,1939E-3,5C000400,-0723,0824,12360,032.3,045.6,0.247,755.0,01.17,0.508
2016-08-17 00:38:00,2155E-3,5C000400,-0723,0825,12265,032.3,045.6,0.246,754.9,01.17,0.508
2016-08-17 00:39:00,2197E-3,5C000400,-0723,0824,12320,032.3,045.6,0.246,754.8,01.17,0.508
2016-08-17 00:40:00,2140E-3,5C000400,-0723,0824,12252,032.2,045.6,0.247,754.8,01.17,0.508
2016-08-17 00:41:00,2057E-3,5C000400,-0723,0825,12112,032.2,045.6,0.247,754.9,01.17,0.508
2016-08-17 00:42:00,2218E-3,5C000400,-0723,0825,12127,032.2,045.6,0.246,754.9,01.17,0.508
2016-08-17 00:43:00,2052E-3,5C000400,-0723,0825,12164,032.2,045.6,0.247,754.8,01.17,0.508
2016-08-17 00:44:00,2223E-3,5C000400,-0723,0824,12309,032.2,045.6,0.247,754.8,01.17,0.508
2016-08-17 00:45:00,2197E-3,5C000400,-0723,0825,12207,032.2,045.6,0.247,754.8,01.17,0.508
2016-08-17 00:46:00,2187E-3,5C000400,-0723,0825,12232,032.2,045.6,0.247,754.8,01.17,0.508
2016-08-17 00:47:00,2036E-3,5C000400,-0723,0824,12388,032.2,045.6,0.247,754.8,01.17,0.508
2016-08-17 00:48:00,2056E-3,5C000400,-0723,0824,12224,032.1,045.6,0.247,754.9,01.17,0.508
2016-08-17 00:49:00,2192E-3,5C000400,-0723,0825,12168,032.1,045.6,0.247,754.9,01.17,0.508
2016-08-17 00:50:00,2268E-3,5C000400,-0723,0825,12098,032.1,045.6,0.246,754.9,01.17,0.508
2016-08-17 00:51:00,2058E-3,5C000400,-0723,0825,11198,032.1,045.6,0.247,754.9,01.17,0.508
2016-08-17 00:52:00,2131E-3,5C000400,-0723,0825,12258,032.1,045.6,0.247,754.8,01.17,0.508
2016-08-17 00:53:00,2132E-3,5C000400,-0723,0825,12406,032.1,045.6,0.247,754.8,01.17,0.508
2016-08-17 00:54:00,2082E-3,5C000400,-0723,0824,12169,032.1,045.6,0.247,754.8,01.17,0.508
2016-08-17 00:55:00,2160E-3,5C000400,-0723,0825,12306,032.1,045.6,0.247,754.8,01.17,0.508
2016-08-17 00:56:00,2108E-3,5C000400,-0723,0825,12230,032.1,045.6,0.247,754.8,01.17,0.508
2016-08-17 00:57:00,2126E-3,5C000400,-0723,0825,12128,032.1,045.6,0.247,754.8,01.17,0.508
2016-08-17 00:58:00,2202E-3,5C000400,-0723,0825,12222,032.1,045.6,0.247,754.8,01.17,0.508
2016-08-17 00:59:00,2072E-3,5C000400,-0723,0825,12278,032.1,045.6,0.247,754.8,01.17,0.508
2016-08-17 01:00:00,2081E-3,5C000400,-0723,0825,12231,032.1,045.6,0.246,754.8,01.17,0.508
2016-08-17 01:01:00,2122E-3,5C000400,-0723,0824,12303,032.1,045.6,0.247,754.8,01.17,0.508
2016-08-17 01:02:00,2100E-3,5C000400,-0723,0825,12308,032.1,045.6,0.247,754.8,01.17,0.508
2016-08-17 01:03:00,2079E-3,5C000400,-0723,0825,12256,032.1,045.6,0.247,754.9,01.17,0.508
2016-08-17 01:04:00,1998E-3,5C000400,-0723,0825,12120,032.1,045.6,0.247,754.8,01.17,0.508
2016-08-17 01:05:00,2137E-3,5C000400,-0723,0824,12256,032.1,045.6,0.247,754.8,01.17,0.508
2016-08-17 01:06:00,2149E-3,5C000400,-0723,0825,12231,032.1,045.6,0.247,754.8,01.17,0.508
2016-08-17 01:07:00,2051E-3,5C000400,-0723,0824,12117,032.1,045.6,0.247,754.9,01.17,0.508
2016-08-17 01:08:00,2036E-3,5C000400,-0723,0824,12088,032.1,045.6,0.247,754.9,01.17,0.508
2016-08-17 01:09:00,2248E-3,5C000400,-0723,0824,12335,032.1,045.6,0.247,754.9,01.17,0.508
2016-08-17 01:10:00,1989E-3,5C000400,-0723,0824,12108,032.1,045.6,0.247,754.9,01.17,0.508
2016-08-17 01:11:00,2044E-3,5C000400,-0723,0825,12354,032.1,045.6,0.247,754.8,01.17,0.508
2016-08-17 01:12:00,2165E-3,5C000400,-0723,0825,12278,032.1,045.6,0.247,754.8,01.17,0.508
2016-08-17 01:13:00,2204E-3,5C000400,-0723,0823,12166,032.1,045.6,0.247,754.8,01.17,0.508
2016-08-17 01:14:00,2087E-3,5C000400,-0723,0824,12365,032.1,045.6,0.247,754.8,01.17,0.508
2016-08-17 01:15:00,2154E-3,5C000400,-0723,0824,12246,032.1,045.6,0.247,754.8,01.17,0.508
2016-08-17 01:16:00,2068E-3,5C000400,-0723,0825,12180,032.1,045.6,0.247,754.8,01.17,0.508
2016-08-17 01:17:00,2201E-3,5C000400,-0723,0824,12055,032.1,045.6,0.247,754.8,01.17,0.508
2016-08-17 01:18:00,2044E-3,5C000400,-0723,0824,12274,032.0,045.6,0.247,754.8,01.17,0.508
2016-08-17 01:19:00,1942E-3,5C000400,-0723,0824,12345,032.1,045.6,0.247,754.8,01.17,0.508
2016-08-17 01:20:00,2147E-3,5C000400,-0723,0824,12262,032.0,045.6,0.247,754.8,01.17,0.508
2016-08-17 01:21:00,2135E-3,5C000400,-0723,0824,12052,032.1,045.6,0.247,754.8,01.17,0.508
2016-08-17 01:22:00,2169E-3,5C000400,-0723,0825,12398,032.1,045.6,0.247,754.8,01.17,0.508
2016-08-17 01:23:00,2144E-3,5C000400,-0723,0825,12164,032.1,045.6,0.247,754.8,01.17,0.508
2016-08-17 01:24:00,2156E-3,5C000400,-0723,0825,12206,032.1,045.6,0.247,754.9,01.17,0.508
2016-08-17 01:25:00,2091E-3,5C000400,-0723,0824,12302,032.1,045.6,0.247,754.9,01.17,0.508
2016-08-17 01:26:00,2108E-3,5C000400,-0723,0824,12239,032.1,045.6,0.247,754.9,01.17,0.508
2016-08-17 01:27:00,2335E-3,5C000400,-0723,0825,12288,032.0,045.6,0.247,754.8,01.17,0.508
2016-08-17 01:28:00,2251E-3,5C000400,-0723,0824,12072,032.1,045.6,0.247,754.8,01.17,0.508
2016-08-17 01:29:00,2269E-3,5C000400,-0723,0824,12246,032.1,045.6,0.247,754.7,01.17,0.508
2016-08-17 01:30:00,2091E-3,5C000400,-0723,0824,12165,032.1,045.6,0.247,754.8,01.17,0.508
2016-08-17 01:31:00,2204E-3,5C000400,-0723,0825,12219,032.1,045.6,0.247,754.8,01.17,0.508
2016-08-17 01:32:00,2167E-3,5C000400,-0723,0824,12207,032.1,045.6,0.247,754.8,01.17,0.508
2016-08-17 01:33:00,2171E-3,5C000400,-0723,0824,12285,032.0,045.6,0.247,754.8,01.17,0.508
2016-08-17 01:34:00,2231E-3,5C000400,-0723,0824,12331,032.1,045.6,0.247,754.8,01.17,0.508
2016-08-17 01:35:00,2132E-3,5C000400,-0723,0824,12218,032.1,045.6,0.247,754.8,01.17,0.508
2016-08-17 01:36:00,2124E-3,5C000400,-0723,0825,12259,032.1,045.6,0.247,754.8,01.17,0.508
2016-08-17 01:37:00,2177E-3,5C000400,-0723,0825,12049,032.1,045.6,0.247,754.8,01.17,0.508
2016-08-17 01:38:00,2066E-3,5C000400,-0723,0825,12202,032.1,045.6,0.247,754.8,01.17,0.508
2016-08-17 01:39:00,2069E-3,5C000400,-0723,0826,12149,032.1,045.6,0.247,754.8,01.17,0.508
2016-08-17 01:40:00,2134E-3,5C000400,-0723,0825,12237,032.1,045.6,0.247,754.8,01.17,0.508
2016-08-17 01:41:00,2066E-3,5C000400,-0723,0825,12183,032.1,045.6,0.247,754.8,01.17,0.508
2016-08-17 01:42:00,2003E-3,5C000400,-0723,0824,12150,032.1,045.6,0.247,754.8,01.17,0.508
2016-08-17 01:43:00,2143E-3,5C000400,-0723,0825,12270,032.1,045.6,0.248,754.8,01.17,0.508
2016-08-17 01:44:00,2095E-3,5C000400,-0723,0825,12173,032.1,045.6,0.247,754.7,01.17,0.508
2016-08-17 01:45:00,2134E-3,5C000400,-0723,0826,12264,032.1,045.6,0.247,754.7,01.17,0.508
2016-08-17 01:46:00,2046E-3,5C000400,-0723,0826,12271,032.1,045.6,0.248,754.7,01.17,0.508
2016-08-17 01:47:00,2119E-3,5C000400,-0723,0825,12131,032.1,045.6,0.247,754.7,01.17,0.508
2016-08-17 01:48:00,2186E-3,5C000400,-0723,0825,12333,032.1,045.6,0.247,754.7,01.17,0.508
2016-08-17 01:49:00,2198E-3,5C000400,-0723,0825,12147,032.1,045.6,0.247,754.7,01.17,0.508
2016-08-17 01:50:00,1977E-3,5C000400,-0723,0824,12167,032.1,045.6,0.247,754.6,01.17,0.508
2016-08-17 01:51:00,2194E-3,5C000400,-0723,0826,12285,032.1,045.6,0.247,754.7,01.17,0.508
2016-08-17 01:52:00,2176E-3,5C000400,-0723,0826,12291,032.1,045.6,0.247,754.6,01.17,0.508
2016-08-17 01:53:00,2085E-3,5C000400,-0723,0825,12217,032.1,045.6,0.247,754.6,01.17,0.508
2016-08-17 01:54:00,1946E-3,5C000400,-0723,0825,12352,032.1,045.6,0.247,754.6,01.17,0.508
2016-08-17 01:55:00,2164E-3,5C000400,-0723,0825,12154,032.1,045.6,0.247,754.6,01.17,0.508
2016-08-17 01:56:00,2124E-3,5C000400,-0723,0825,12262,032.1,045.6,0.247,754.6,01.17,0.508
2016-08-17 01:57:00,1977E-3,5C000400,-0723,0825,12081,032.1,045.6,0.247,754.6,01.17,0.508
2016-08-17 01:58:00,2156E-3,5C000400,-0723,0825,12215,032.1,045.6,0.247,754.6,01.17,0.508
2016-08-17 01:59:00,2110E-3,5C000400,-0723,0825,12283,032.2,045.6,0.247,754.6,01.17,0.508
2016-08-17 02:00:00,2221E-3,5C000400,-0723,0825,12094,032.1,045.6,0.247,754.6,01.17,0.508
2016-08-17 02:01:00,2119E-3,5C000400,-0723,0825,12336,032.1,045.6,0.247,754.6,01.17,0.508
2016-08-17 02:02:00,2067E-3,5C000400,-0723,0825,12159,032.1,045.6,0.247,754.6,01.17,0.508
2016-08-17 02:03:00,1963E-3,5C000400,-0723,0825,12202,032.2,045.6,0.247,754.5,01.17,0.508
2016-08-17 02:04:00,2121E-3,5C000400,-0723,0825,12252,032.1,045.6,0.247,754.6,01.17,0.508
2016-08-17 02:05:00,1996E-3,5C000400,-0723,0825,12347,032.2,045.6,0.247,754.6,01.17,0.508
2016-08-17 02:06:00,2206E-3,5C000400,-0723,0825,12272,032.2,045.6,0.247,754.6,01.17,0.508
2016-08-17 02:07:00,2205E-3,5C000400,-0723,0825,12280,032.2,045.6,0.247,754.6,01.17,0.508
2016-08-17 02:08:00,2115E-3,5C000400,-0723,0825,12193,032.1,045.6,0.247,754.6,01.17,0.508
2016-08-17 02:09:00,2023E-3,5C000400,-0723,0825,12210,032.2,045.6,0.247,754.6,01.17,0.508
2016-08-17 02:10:00,2099E-3,5C000400,-0723,0826,12314,032.2,045.6,0.247,754.6,01.17,0.508
2016-08-17 02:11:00,2042E-3,5C000400,-0723,0825,12343,032.2,045.6,0.246,754.5,01.17,0.508
2016-08-17 02:12:00,2095E-3,5C000400,-0723,0826,12296,032.2,045.6,0.247,754.6,01.17,0.508
2016-08-17 02:13:00,2118E-3,5C000400,-0723,0825,12138,032.2,045.6,0.247,754.5,01.17,0.508
2016-08-17 02:14:00,2149E-3,5C000400,-0723,0825,12285,032.2,045.6,0.246,754.5,01.17,0.508
2016-08-17 02:15:00,2141E-3,5C000400,-0723,0825,12296,032.2,045.6,0.247,754.5,01.17,0.508
2016-08-17 02:16:00,2088E-3,5C000400,-0723,0825,12147,032.2,045.6,0.247,754.6,01.17,0.508
2016-08-17 02:17:00,1996E-3,5C000400,-0723,0824,12096,032.2,045.6,0.246,754.5,01.17,0.508
2016-08-17 02:18:00,2058E-3,5C000400,-0723,0825,12024,032.2,045.6,0.247,754.5,01.17,0.508
2016-08-17 02:19:00,2039E-3,5C000400,-0723,0826,12274,032.2,045.6,0.247,754.5,01.17,0.508
2016-08-17 02:20:00,2054E-3,5C000400,-0723,0825,12295,032.2,045.6,0.247,754.5,01.17,0.508
2016-08-17 02:21:00,2201E-3,5C000400,-0723,0824,12277,032.2,045.6,0.247,754.4,01.17,0.508
2016-08-17 02:22:00,2049E-3,5C000400,-0723,0825,12241,032.2,045.6,0.247,754.4,01.17,0.508
2016-08-17 02:23:00,2190E-3,5C000400,-0723,0825,12228,032.2,045.6,0.247,754.4,01.17,0.508
2016-08-17 02:24:00,2032E-3,5C000400,-0723,0824,12353,032.2,045.6,0.247,754.4,01.17,0.508
2016-08-17 02:25:00,2163E-3,5C000400,-0723,0825,12260,032.2,045.6,0.247,754.4,01.17,0.508
2016-08-17 02:26:00,2012E-3,5C000400,-0723,0826,12249,032.2,045.6,0.247,754.4,01.17,0.508
2016-08-17 02:27:00,2020E-3,5C000400,-0723,0825,12193,032.2,045.6,0.247,754.4,01.17,0.508
2016-08-17 02:28:00,2011E-3,5C000400,-0723,0825,12395,032.2,045.6,0.247,754.4,01.17,0.508
2016-08-17 02:29:00,2053E-3,5C000400,-0723,0825,12249,032.3,045.6,0.247,754.4,01.17,0.508
2016-08-17 02:30:00,2157E-3,5C000400,-0723,0825,12239,032.2,045.6,0.247,754.4,01.17,0.508
2016-08-17 02:31:00,2113E-3,5C000400,-0723,0825,12154,032.3,045.6,0.246,754.4,01.17,0.508
2016-08-17 02:32:00,2084E-3,5C000400,-0723,0825,12282,032.3,045.6,0.247,754.4,01.17,0.508
2016-08-17 02:33:00,2180E-3,5C000400,-0723,0825,12031,032.2,045.6,0.247,754.3,01.17,0.508
2016-08-17 02:34:00,2173E-3,5C000400,-0723,0825,12337,032.2,045.6,0.246,754.4,01.17,0.508
2016-08-17 02:35:00,2063E-3,5C000400,-0723,0825,12304,032.3,045.6,0.247,754.3,01.17,0.508
2016-08-17 02:36:00,2016E-3,5C000400,-0723,0825,12236,032.3,045.6,0.247,754.3,01.17,0.508
2016-08-17 02:37:00,2095E-3,5C000400,-0723,0825,12057,032.3,045.6,0.246,754.3,01.17,0.508
2016-08-17 02:38:00,2110E-3,5C000400,-0723,0825,12299,032.3,045.6,0.247,754.3,01.17,0.508
2016-08-17 02:39:00,2024E-3,5C000400,-0723,0825,12285,032.3,045.6,0.247,754.4,01.17,0.508
2016-08-17 02:40:00,2123E-3,5C000400,-0723,0826,12307,032.3,045.6,0.247,754.3,01.17,0.508
2016-08-17 02:41:00,2164E-3,5C000400,-0723,0826,12336,032.3,045.6,0.247,754.3,01.17,0.508
2016-08-17 02:42:00,2196E-3,5C000400,-0723,0825,12264,032.3,045.6,0.247,754.3,01.17,0.508
2016-08-17 02:43:00,2038E-3,5C000400,-0723,0825,12130,032.3,045.6,0.247,754.3,01.17,0.508
2016-08-17 02:44:00,2152E-3,5C000400,-0723,0825,12223,032.3,045.6,0.247,754.2,01.17,0.508
2016-08-17 02:45:00,2029E-3,5C000400,-0723,0825,12101,032.3,045.6,0.247,754.2,01.17,0.508
2016-08-17 02:46:00,2072E-3,5C000400,-0723,0826,12240,032.3,045.6,0.247,754.2,01.17,0.508
2016-08-17 02:47:00,2021E-3,5C000400,-0723,0825,12289,032.3,045.6,0.247,754.3,01.17,0.508
2016-08-17 02:48:00,2050E-3,5C000400,-0723,0825,12156,032.3,045.6,0.247,754.3,01.17,0.508
2016-08-17 02:49:00,2071E-3,5C000400,-0723,0825,12203,032.3,045.6,0.247,754.3,01.17,0.508
2016-08-17 02:50:00,2065E-3,5C000400,-0723,0825,12335,032.3,045.6,0.247,754.3,01.17,0.508
2016-08-17 02:51:00,2050E-3,5C000400,-0723,0826,12284,032.3,045.6,0.246,754.2,01.17,0.508
2016-08-17 02:52:00,2093E-3,5C000400,-0723,0825,12203,032.3,045.6,0.247,754.2,01.17,0.508
2016-08-17 02:53:00,2078E-3,5C000400,-0723,0826,12344,032.4,045.6,0.247,754.1,01.17,0.508
2016-08-17 02:54:00,1974E-3,5C000400,-0723,0825,12253,032.4,045.6,0.246,754.1,01.17,0.508
2016-08-17 02:55:00,2116E-3,5C000400,-0723,0825,12110,032.4,045.6,0.247,754.1,01.17,0.508
2016-08-17 02:56:00,2083E-3,5C000400,-0723,0826,12215,032.4,045.6,0.247,754.1,01.17,0.508
2016-08-17 02:57:00,2078E-3,5C000400,-0723,0825,12273,032.4,045.6,0.246,754.2,01.17,0.508
2016-08-17 02:58:00,2221E-3,5C000400,-0723,0826,12186,032.4,045.6,0.247,754.1,01.17,0.508
2016-08-17 02:59:00,2061E-3,5C000400,-0723,0825,12268,032.4,045.6,0.247,754.2,01.17,0.508
2016-08-17 03:00:00,2142E-3,5C000400,-0723,0824,12249,032.4,045.6,0.246,754.1,01.17,0.508
2016-08-17 03:01:00,2023E-3,5C000400,-0723,0826,12201,032.4,045.6,0.247,754.2,01.17,0.508
2016-08-17 03:02:00,2133E-3,5C000400,-0723,0824,12218,032.4,045.6,0.247,754.2,01.17,0.508
2016-08-17 03:03:00,2096E-3,5C000400,-0723,0826,12183,032.4,045.6,0.246,754.2,01.17,0.508
2016-08-17 03:04:00,2033E-3,5C000400,-0723,0825,12199,032.4,045.6,0.247,754.2,01.17,0.508
2016-08-17 03:05:00,1992E-3,5C000400,-0723,0825,12031,032.4,045.6,0.247,754.2,01.17,0.508
2016-08-17 03:06:00,2196E-3,5C000400,-0723,0825,12303,032.4,045.6,0.246,754.2,01.17,0.508
2016-08-17 03:07:00,2075E-3,5C000400,-0723,0825,12245,032.4,045.6,0.247,754.2,01.17,0.508
2016-08-17 03:08:00,2155E-3,5C000400,-0723,0825,12233,032.4,045.6,0.247,754.2,01.17,0.508
2016-08-17 03:09:00,2157E-3,5C000400,-0723,0826,12195,032.4,045.6,0.246,754.2,01.17,0.508
2016-08-17 03:10:00,2273E-3,5C000400,-0723,0825,12326,032.4,045.6,0.246,754.2,01.17,0.508
2016-08-17 03:11:00,2178E-3,5C000400,-0723,0826,12154,032.5,045.6,0.247,754.2,01.17,0.508
2016-08-17 03:12:00,2106E-3,5C000400,-0723,0826,12290,032.5,045.6,0.246,754.2,01.17,0.508
2016-08-17 03:13:00,2230E-3,5C000400,-0723,0826,12371,032.4,045.6,0.246,754.2,01.17,0.508
2016-08-17 03:14:00,2140E-3,5C000400,-0723,0825,12226,032.5,045.6,0.247,754.2,01.17,0.508
2016-08-17 03:15:00,2177E-3,5C000400,-0723,0826,12242,032.5,045.6,0.246,754.2,01.17,0.508
2016-08-17 03:16:00,1933E-3,5C000400,-0723,0826,12308,032.5,045.6,0.246,754.2,01.17,0.508
2016-08-17 03:17:00,2144E-3,5C000400,-0723,0825,12202,032.5,045.6,0.247,754.2,01.17,0.508
2016-08-17 03:18:00,1999E-3,5C000400,-0723,0826,12128,032.5,045.6,0.246,754.2,01.17,0.508
2016-08-17 03:19:00,2158E-3,5C000400,-0723,0825,12207,032.5,045.6,0.246,754.2,01.17,0.508
2016-08-17 03:20:00,2089E-3,5C000400,-0723,0825,12313,032.5,045.6,0.247,754.2,01.17,0.508
2016-08-17 03:21:00,2243E-3,5C000400,-0723,0826,12200,032.5,045.6,0.246,754.2,01.17,0.508
2016-08-17 03:22:00,2132E-3,5C000400,-0723,0826,12139,032.5,045.6,0.246,754.2,01.17,0.508
2016-08-17 03:23:00,2031E-3,5C000400,-0723,0825,12126,032.5,045.6,0.247,754.1,01.17,0.508
2016-08-17 03:24:00,2062E-3,5C000400,-0723,0825,12304,032.5,045.6,0.246,754.2,01.17,0.508
2016-08-17 03:25:00,2083E-3,5C000400,-0723,0825,12257,032.5,045.6,0.246,754.1,01.17,0.508
2016-08-17 03:26:00,2084E-3,5C000400,-0723,0825,12179,032.5,045.6,0.247,754.1,01.17,0.508
2016-08-17 03:27:00,2131E-3,5C000400,-0723,0826,12282,032.5,045.6,0.246,754.1,01.17,0.508
2016-08-17 03:28:00,2018E-3,5C000400,-0723,0826,12233,032.5,045.6,0.246,754.1,01.17,0.508
2016-08-17 03:29:00,2002E-3,5C000400,-0723,0826,12274,032.5,045.6,0.246,754.1,01.17,0.508
2016-08-17 03:30:00,2015E-3,5C000400,-0723,0825,12247,032.5,045.6,0.246,754.1,01.17,0.508
2016-08-17 03:31:00,2068E-3,5C000400,-0723,0826,12219,032.5,045.6,0.246,754.1,01.17,0.508
2016-08-17 03:32:00,2033E-3,5C000400,-0723,0825,12201,032.5,045.6,0.246,754.1,01.17,0.508
2016-08-17 03:33:00,2054E-3,5C000400,-0723,0826,12279,032.6,045.6,0.246,754.1,01.17,0.508
2016-08-17 03:34:00,2119E-3,5C000400,-0723,0826,12255,032.6,045.6,0.246,754.1,01.17,0.508
2016-08-17 03:35:00,2032E-3,5C000400,-0723,0826,12231,032.5,045.6,0.246,754.1,01.17,0.508
2016-08-17 03:36:00,2149E-3,5C000400,-0723,0825,12189,032.6,045.6,0.246,754.1,01.17,0.508
2016-08-17 03:37:00,2137E-3,5C000400,-0723,0827,12278,032.6,045.6,0.246,754.1,01.17,0.508
2016-08-17 03:38:00,2164E-3,5C000400,-0723,0826,12247,032.6,045.6,0.246,754.1,01.17,0.508
2016-08-17 03:39:00,2156E-3,5C000400,-0723,0826,11999,032.6,045.6,0.246,754.0,01.17,0.508
2016-08-17 03:40:00,2063E-3,5C000400,-0723,0826,12172,032.6,045.6,0.246,754.0,01.17,0.508
2016-08-17 03:41:00,2211E-3,5C000400,-0723,0825,12258,032.6,045.6,0.246,754.0,01.17,0.508
2016-08-17 03:42:00,1996E-3,5C000400,-0723,0825,12281,032.6,045.6,0.246,754.1,01.17,0.508
2016-08-17 03:43:00,2127E-3,5C000400,-0723,0825,12413,032.6,045.6,0.247,754.0,01.17,0.508
2016-08-17 03:44:00,2138E-3,5C000400,-0723,0825,12176,032.6,045.6,0.246,754.0,01.17,0.508
2016-08-17 03:45:00,2102E-3,5C000400,-0723,0826,12312,032.6,045.6,0.246,754.0,01.17,0.508
2016-08-17 03:46:00,2084E-3,5C000400,-0723,0826,12239,032.6,045.6,0.246,754.0,01.17,0.508
2016-08-17 03:47:00,2124E-3,5C000400,-0723,0825,12256,032.6,045.6,0.246,754.0,01.17,0.508
2016-08-17 03:48:00,2205E-3,5C000400,-0723,0825,12273,032.7,045.6,0.246,754.0,01.17,0.508
2016-08-17 03:49:00,2203E-3,5C000400,-0723,0825,12322,032.6,045.6,0.246,754.1,01.17,0.508
2016-08-17 03:50:00,2073E-3,5C000400,-0723,0825,12234,032.6,045.6,0.246,754.0,01.17,0.508
2016-08-17 03:51:00,2116E-3,5C000400,-0723,0825,12366,032.6,045.6,0.246,754.1,01.17,0.508
2016-08-17 03:52:00,2003E-3,5C000400,-0723,0825,12279,032.7,045.6,0.246,754.0,01.17,0.508
2016-08-17 03:53:00,2041E-3,5C000400,-0723,0825,12094,032.7,045.6,0.246,754.1,01.17,0.508
2016-08-17 03:54:00,2063E-3,5C000400,-0723,0826,12111,032.7,045.6,0.246,754.1,01.17,0.508
2016-08-17 03:55:00,1994E-3,5C000400,-0723,0825,12147,032.6,045.6,0.246,754.0,01.17,0.508
2016-08-17 03:56:00,2296E-3,5C000400,-0723,0826,12212,032.6,045.6,0.245,754.1,01.17,0.508
2016-08-17 03:57:00,2138E-3,5C000400,-0723,0825,12375,032.7,045.6,0.246,754.1,01.17,0.508
2016-08-17 03:58:00,2092E-3,5C000400,-0723,0825,12388,032.7,045.6,0.246,754.1,01.17,0.508
2016-08-17 03:59:00,2254E-3,5C000400,-0723,0825,12124,032.7,045.6,0.246,754.1,01.17,0.508
2016-08-17 04:00:00,2218E-3,5C000400,-0723,0825,12260,032.7,045.6,0.246,754.1,01.17,0.508
2016-08-17 04:01:00,2082E-3,5C000400,-0723,0824,12186,032.7,045.6,0.246,754.1,01.17,0.508
2016-08-17 04:02:00,2068E-3,5C000400,-0723,0825,12343,032.7,045.6,0.246,754.1,01.17,0.508
2016-08-17 04:03:00,2103E-3,5C000400,-0723,0825,12285,032.7,045.6,0.245,754.1,01.17,0.508
2016-08-17 04:04:00,2103E-3,5C000400,-0723,0826,12092,032.7,045.6,0.246,754.1,01.17,0.508
2016-08-17 04:05:00,2043E-3,5C000400,-0723,0825,12134,032.7,045.6,0.246,754.1,01.17,0.508
2016-08-17 04:06:00,2130E-3,5C000400,-0723,0825,12153,032.7,045.6,0.246,754.1,01.17,0.508
2016-08-17 04:07:00,2042E-3,5C000400,-0723,0824,12225,032.7,045.6,0.246,754.1,01.17,0.508
2016-08-17 04:08:00,2111E-3,5C000400,-0723,0825,12250,032.7,045.6,0.246,754.1,01.17,0.508
2016-08-17 04:09:00,2174E-3,5C000400,-0723,0826,12216,032.7,045.6,0.246,754.1,01.17,0.508
2016-08-17 04:10:00,2125E-3,5C000400,-0723,0825,12173,032.7,045.6,0.245,754.1,01.17,0.508
2016-08-17 04:11:00,2143E-3,5C000400,-0723,0825,12306,032.7,045.6,0.246,754.1,01.17,0.508
2016-08-17 04:12:00,2192E-3,5C000400,-0723,0825,12253,032.7,045.6,0.246,754.1,01.17,0.508
2016-08-17 04:13:00,2142E-3,5C000400,-0723,0826,12229,032.7,045.6,0.245,754.0,01.17,0.508
2016-08-17 04:14:00,2069E-3,5C000400,-0723,0825,12224,032.8,045.6,0.246,754.1,01.17,0.508
2016-08-17 04:15:00,2073E-3,5C000400,-0723,0824,12361,032.7,045.6,0.246,754.0,01.17,0.508
2016-08-17 04:16:00,2109E-3,5C000400,-0723,0825,12202,032.7,045.6,0.246,754.1,01.17,0.508
2016-08-17 04:17:00,2322E-3,5C000400,-0723,0825,12345,032.8,045.6,0.245,754.0,01.17,0.508
2016-08-17 04:18:00,1930E-3,5C000400,-0723,0825,12190,032.8,045.6,0.246,754.0,01.17,0.508
2016-08-17 04:19:00,2139E-3,5C000400,-0723,0824,12249,032.8,045.6,0.246,754.0,01.17,0.508
2016-08-17 04:20:00,2251E-3,5C000400,-0723,0825,12284,032.8,045.6,0.245,754.1,01.17,0.508